Year,Month,Day,Hour,Minute,Value (Times are PST for insolation in W/m^2)
2007,07,07,00,00,0.00
2007,07,07,00,01,0.00
2007,07,07,00,02,0.00
2007,07,07,00,03,0.00
2007,07,07,00,04,0.00
2007,07,07,00,05,0.00
2007,07,07,00,06,0.00
2007,07,07,00,07,0.00
2007,07,07,00,08,0.00
2007,07,07,00,09,0.00
2007,07,07,00,10,0.00
2007,07,07,00,11,0.00
2007,07,07,00,12,0.00
2007,07,07,00,13,0.00
2007,07,07,00,14,0.00
2007,07,07,00,15,0.00
2007,07,07,00,16,0.00
2007,07,07,00,17,0.00
2007,07,07,00,18,0.00
2007,07,07,00,19,0.00
2007,07,07,00,20,0.00
2007,07,07,00,21,0.00
2007,07,07,00,22,0.00
2007,07,07,00,23,0.00
2007,07,07,00,24,0.00
2007,07,07,00,25,0.00
2007,07,07,00,26,0.00
2007,07,07,00,27,0.00
2007,07,07,00,28,0.00
2007,07,07,00,29,0.00
2007,07,07,00,30,0.00
2007,07,07,00,31,0.00
2007,07,07,00,32,0.00
2007,07,07,00,33,0.00
2007,07,07,00,34,0.00
2007,07,07,00,35,0.00
2007,07,07,00,36,0.00
2007,07,07,00,37,0.00
2007,07,07,00,38,0.00
2007,07,07,00,39,0.00
2007,07,07,00,40,0.00
2007,07,07,00,41,0.00
2007,07,07,00,42,0.00
2007,07,07,00,43,0.00
2007,07,07,00,44,0.00
2007,07,07,00,45,0.00
2007,07,07,00,46,0.00
2007,07,07,00,47,0.00
2007,07,07,00,48,0.00
2007,07,07,00,49,0.00
2007,07,07,00,50,0.00
2007,07,07,00,51,0.00
2007,07,07,00,52,0.00
2007,07,07,00,53,0.00
2007,07,07,00,54,0.00
2007,07,07,00,55,0.00
2007,07,07,00,56,0.00
2007,07,07,00,57,0.00
2007,07,07,00,58,0.00
2007,07,07,00,59,0.00
2007,07,07,01,00,0.00
2007,07,07,01,01,0.00
2007,07,07,01,02,0.00
2007,07,07,01,03,0.00
2007,07,07,01,04,0.00
2007,07,07,01,05,0.00
2007,07,07,01,06,0.00
2007,07,07,01,07,0.00
2007,07,07,01,08,0.00
2007,07,07,01,09,0.00
2007,07,07,01,10,0.00
2007,07,07,01,11,0.00
2007,07,07,01,12,0.00
2007,07,07,01,13,0.00
2007,07,07,01,14,0.00
2007,07,07,01,15,0.00
2007,07,07,01,16,0.00
2007,07,07,01,17,0.00
2007,07,07,01,18,0.00
2007,07,07,01,19,0.00
2007,07,07,01,20,0.00
2007,07,07,01,21,0.00
2007,07,07,01,22,0.00
2007,07,07,01,23,0.00
2007,07,07,01,24,0.00
2007,07,07,01,25,0.00
2007,07,07,01,26,0.00
2007,07,07,01,27,0.00
2007,07,07,01,28,0.00
2007,07,07,01,29,0.00
2007,07,07,01,30,0.00
2007,07,07,01,31,0.00
2007,07,07,01,32,0.00
2007,07,07,01,33,0.00
2007,07,07,01,34,0.00
2007,07,07,01,35,0.00
2007,07,07,01,36,0.00
2007,07,07,01,37,0.00
2007,07,07,01,38,0.00
2007,07,07,01,39,0.00
2007,07,07,01,40,0.00
2007,07,07,01,41,0.00
2007,07,07,01,42,0.00
2007,07,07,01,43,0.00
2007,07,07,01,44,0.00
2007,07,07,01,45,0.00
2007,07,07,01,46,0.00
2007,07,07,01,47,0.00
2007,07,07,01,48,0.00
2007,07,07,01,49,0.00
2007,07,07,01,50,0.00
2007,07,07,01,51,0.00
2007,07,07,01,52,0.00
2007,07,07,01,53,0.00
2007,07,07,01,54,0.00
2007,07,07,01,55,0.00
2007,07,07,01,56,0.00
2007,07,07,01,57,0.00
2007,07,07,01,58,0.00
2007,07,07,01,59,0.00
2007,07,07,02,00,0.00
2007,07,07,02,01,0.00
2007,07,07,02,02,0.00
2007,07,07,02,03,0.00
2007,07,07,02,04,0.00
2007,07,07,02,05,0.00
2007,07,07,02,06,0.00
2007,07,07,02,07,0.00
2007,07,07,02,08,0.00
2007,07,07,02,09,0.00
2007,07,07,02,10,0.00
2007,07,07,02,11,0.00
2007,07,07,02,12,0.00
2007,07,07,02,13,0.00
2007,07,07,02,14,0.00
2007,07,07,02,15,0.00
2007,07,07,02,16,0.00
2007,07,07,02,17,0.00
2007,07,07,02,18,0.00
2007,07,07,02,19,0.00
2007,07,07,02,20,0.00
2007,07,07,02,21,0.00
2007,07,07,02,22,0.00
2007,07,07,02,23,0.00
2007,07,07,02,24,0.00
2007,07,07,02,25,0.00
2007,07,07,02,26,0.00
2007,07,07,02,27,0.00
2007,07,07,02,28,0.00
2007,07,07,02,29,0.00
2007,07,07,02,30,0.00
2007,07,07,02,31,0.00
2007,07,07,02,32,0.00
2007,07,07,02,33,0.00
2007,07,07,02,34,0.00
2007,07,07,02,35,0.00
2007,07,07,02,36,0.00
2007,07,07,02,37,0.00
2007,07,07,02,38,0.00
2007,07,07,02,39,0.00
2007,07,07,02,40,0.00
2007,07,07,02,41,0.00
2007,07,07,02,42,0.00
2007,07,07,02,43,0.00
2007,07,07,02,44,0.00
2007,07,07,02,45,0.00
2007,07,07,02,46,0.00
2007,07,07,02,47,0.00
2007,07,07,02,48,0.00
2007,07,07,02,49,0.00
2007,07,07,02,50,0.00
2007,07,07,02,51,0.00
2007,07,07,02,52,0.00
2007,07,07,02,53,0.00
2007,07,07,02,54,0.00
2007,07,07,02,55,0.00
2007,07,07,02,56,0.00
2007,07,07,02,57,0.00
2007,07,07,02,58,0.00
2007,07,07,02,59,0.00
2007,07,07,03,00,0.00
2007,07,07,03,01,0.00
2007,07,07,03,02,0.00
2007,07,07,03,03,0.00
2007,07,07,03,04,0.00
2007,07,07,03,05,0.00
2007,07,07,03,06,0.00
2007,07,07,03,07,0.00
2007,07,07,03,08,0.00
2007,07,07,03,09,0.00
2007,07,07,03,10,0.00
2007,07,07,03,11,0.00
2007,07,07,03,12,0.00
2007,07,07,03,13,0.00
2007,07,07,03,14,0.00
2007,07,07,03,15,0.00
2007,07,07,03,16,0.00
2007,07,07,03,17,0.00
2007,07,07,03,18,0.00
2007,07,07,03,19,0.00
2007,07,07,03,20,0.00
2007,07,07,03,21,0.00
2007,07,07,03,22,0.00
2007,07,07,03,23,0.00
2007,07,07,03,24,0.00
2007,07,07,03,25,0.00
2007,07,07,03,26,0.00
2007,07,07,03,27,0.00
2007,07,07,03,28,0.00
2007,07,07,03,29,0.00
2007,07,07,03,30,0.00
2007,07,07,03,31,0.00
2007,07,07,03,32,0.00
2007,07,07,03,33,0.00
2007,07,07,03,34,0.00
2007,07,07,03,35,0.00
2007,07,07,03,36,0.00
2007,07,07,03,37,0.00
2007,07,07,03,38,0.00
2007,07,07,03,39,0.00
2007,07,07,03,40,0.00
2007,07,07,03,41,0.00
2007,07,07,03,42,0.00
2007,07,07,03,43,0.00
2007,07,07,03,44,0.00
2007,07,07,03,45,0.00
2007,07,07,03,46,0.00
2007,07,07,03,47,0.00
2007,07,07,03,48,0.00
2007,07,07,03,49,0.00
2007,07,07,03,50,0.00
2007,07,07,03,51,0.00
2007,07,07,03,52,0.00
2007,07,07,03,53,0.00
2007,07,07,03,54,0.00
2007,07,07,03,55,0.00
2007,07,07,03,56,0.00
2007,07,07,03,57,0.00
2007,07,07,03,58,0.00
2007,07,07,03,59,0.00
2007,07,07,04,00,0.00
2007,07,07,04,01,0.00
2007,07,07,04,02,0.00
2007,07,07,04,03,0.00
2007,07,07,04,04,0.00
2007,07,07,04,05,0.00
2007,07,07,04,06,0.00
2007,07,07,04,07,0.00
2007,07,07,04,08,0.00
2007,07,07,04,09,0.00
2007,07,07,04,10,0.00
2007,07,07,04,11,0.00
2007,07,07,04,12,0.00
2007,07,07,04,13,0.00
2007,07,07,04,14,0.00
2007,07,07,04,15,0.00
2007,07,07,04,16,0.00
2007,07,07,04,17,0.00
2007,07,07,04,18,0.00
2007,07,07,04,19,0.00
2007,07,07,04,20,0.00
2007,07,07,04,21,0.00
2007,07,07,04,22,0.00
2007,07,07,04,23,0.00
2007,07,07,04,24,0.00
2007,07,07,04,25,0.00
2007,07,07,04,26,0.00
2007,07,07,04,27,0.00
2007,07,07,04,28,0.00
2007,07,07,04,29,0.00
2007,07,07,04,30,0.00
2007,07,07,04,31,0.00
2007,07,07,04,32,0.00
2007,07,07,04,33,0.00
2007,07,07,04,34,0.00
2007,07,07,04,35,0.00
2007,07,07,04,36,0.00
2007,07,07,04,37,0.00
2007,07,07,04,38,0.00
2007,07,07,04,39,0.00
2007,07,07,04,40,0.00
2007,07,07,04,41,0.00
2007,07,07,04,42,0.00
2007,07,07,04,43,0.00
2007,07,07,04,44,0.00
2007,07,07,04,45,0.00
2007,07,07,04,46,0.00
2007,07,07,04,47,0.00
2007,07,07,04,48,0.00
2007,07,07,04,49,0.00
2007,07,07,04,50,0.00
2007,07,07,04,51,0.00
2007,07,07,04,52,0.00
2007,07,07,04,53,0.00
2007,07,07,04,54,0.00
2007,07,07,04,55,0.00
2007,07,07,04,56,0.00
2007,07,07,04,57,0.00
2007,07,07,04,58,0.00
2007,07,07,04,59,0.00
2007,07,07,05,00,0.00
2007,07,07,05,01,0.00
2007,07,07,05,02,0.00
2007,07,07,05,03,0.00
2007,07,07,05,04,0.00
2007,07,07,05,05,0.00
2007,07,07,05,06,0.00
2007,07,07,05,07,0.00
2007,07,07,05,08,0.00
2007,07,07,05,09,0.00
2007,07,07,05,10,0.00
2007,07,07,05,11,0.00
2007,07,07,05,12,0.00
2007,07,07,05,13,0.00
2007,07,07,05,14,0.00
2007,07,07,05,15,0.00
2007,07,07,05,16,0.00
2007,07,07,05,17,0.00
2007,07,07,05,18,0.00
2007,07,07,05,19,0.00
2007,07,07,05,20,1.50
2007,07,07,05,21,5.00
2007,07,07,05,22,5.00
2007,07,07,05,23,5.00
2007,07,07,05,24,6.90
2007,07,07,05,25,7.00
2007,07,07,05,26,7.00
2007,07,07,05,27,7.00
2007,07,07,05,28,7.00
2007,07,07,05,29,8.70
2007,07,07,05,30,9.00
2007,07,07,05,31,9.40
2007,07,07,05,32,11.00
2007,07,07,05,33,11.00
2007,07,07,05,34,11.00
2007,07,07,05,35,11.00
2007,07,07,05,36,11.00
2007,07,07,05,37,11.00
2007,07,07,05,38,11.40
2007,07,07,05,39,12.00
2007,07,07,05,40,12.00
2007,07,07,05,41,13.50
2007,07,07,05,42,14.10
2007,07,07,05,43,16.00
2007,07,07,05,44,16.00
2007,07,07,05,45,16.00
2007,07,07,05,46,16.00
2007,07,07,05,47,16.00
2007,07,07,05,48,18.00
2007,07,07,05,49,18.00
2007,07,07,05,50,18.00
2007,07,07,05,51,18.00
2007,07,07,05,52,20.30
2007,07,07,05,53,21.00
2007,07,07,05,54,23.20
2007,07,07,05,55,27.80
2007,07,07,05,56,32.40
2007,07,07,05,57,32.40
2007,07,07,05,58,32.70
2007,07,07,05,59,34.90
2007,07,07,06,00,33.00
2007,07,07,06,01,32.00
2007,07,07,06,02,30.00
2007,07,07,06,03,33.10
2007,07,07,06,04,42.40
2007,07,07,06,05,52.50
2007,07,07,06,06,57.10
2007,07,07,06,07,51.30
2007,07,07,06,08,41.50
2007,07,07,06,09,38.30
2007,07,07,06,10,44.80
2007,07,07,06,11,44.20
2007,07,07,06,12,42.90
2007,07,07,06,13,46.00
2007,07,07,06,14,48.20
2007,07,07,06,15,65.90
2007,07,07,06,16,89.00
2007,07,07,06,17,100.20
2007,07,07,06,18,105.10
2007,07,07,06,19,110.60
2007,07,07,06,20,114.60
2007,07,07,06,21,117.40
2007,07,07,06,22,115.00
2007,07,07,06,23,101.80
2007,07,07,06,24,99.70
2007,07,07,06,25,109.50
2007,07,07,06,26,122.70
2007,07,07,06,27,127.30
2007,07,07,06,28,115.40
2007,07,07,06,29,114.40
2007,07,07,06,30,127.80
2007,07,07,06,31,139.90
2007,07,07,06,32,147.20
2007,07,07,06,33,146.60
2007,07,07,06,34,146.00
2007,07,07,06,35,144.40
2007,07,07,06,36,134.80
2007,07,07,06,37,138.80
2007,07,07,06,38,135.50
2007,07,07,06,39,148.10
2007,07,07,06,40,161.00
2007,07,07,06,41,166.50
2007,07,07,06,42,163.00
2007,07,07,06,43,165.40
2007,07,07,06,44,169.00
2007,07,07,06,45,173.20
2007,07,07,06,46,174.30
2007,07,07,06,47,180.10
2007,07,07,06,48,185.90
2007,07,07,06,49,189.90
2007,07,07,06,50,192.60
2007,07,07,06,51,193.00
2007,07,07,06,52,192.40
2007,07,07,06,53,194.20
2007,07,07,06,54,169.00
2007,07,07,06,55,180.50
2007,07,07,06,56,204.60
2007,07,07,06,57,208.50
2007,07,07,06,58,211.00
2007,07,07,06,59,210.20
2007,07,07,07,00,198.10
2007,07,07,07,01,194.70
2007,07,07,07,02,199.90
2007,07,07,07,03,197.20
2007,07,07,07,04,200.60
2007,07,07,07,05,181.40
2007,07,07,07,06,197.90
2007,07,07,07,07,204.60
2007,07,07,07,08,207.00
2007,07,07,07,09,199.90
2007,07,07,07,10,199.50
2007,07,07,07,11,211.50
2007,07,07,07,12,213.40
2007,07,07,07,13,217.50
2007,07,07,07,14,228.10
2007,07,07,07,15,233.90
2007,07,07,07,16,237.80
2007,07,07,07,17,244.60
2007,07,07,07,18,247.60
2007,07,07,07,19,226.20
2007,07,07,07,20,223.20
2007,07,07,07,21,247.80
2007,07,07,07,22,257.60
2007,07,07,07,23,257.90
2007,07,07,07,24,262.40
2007,07,07,07,25,265.00
2007,07,07,07,26,264.20
2007,07,07,07,27,275.90
2007,07,07,07,28,278.40
2007,07,07,07,29,273.20
2007,07,07,07,30,261.60
2007,07,07,07,31,272.30
2007,07,07,07,32,278.10
2007,07,07,07,33,282.40
2007,07,07,07,34,278.60
2007,07,07,07,35,260.20
2007,07,07,07,36,266.90
2007,07,07,07,37,282.60
2007,07,07,07,38,280.10
2007,07,07,07,39,293.50
2007,07,07,07,40,260.40
2007,07,07,07,41,260.80
2007,07,07,07,42,302.80
2007,07,07,07,43,316.00
2007,07,07,07,44,316.00
2007,07,07,07,45,268.90
2007,07,07,07,46,319.10
2007,07,07,07,47,346.20
2007,07,07,07,48,318.50
2007,07,07,07,49,328.90
2007,07,07,07,50,349.40
2007,07,07,07,51,332.80
2007,07,07,07,52,340.80
2007,07,07,07,53,315.10
2007,07,07,07,54,331.60
2007,07,07,07,55,360.10
2007,07,07,07,56,377.20
2007,07,07,07,57,378.80
2007,07,07,07,58,349.50
2007,07,07,07,59,339.40
2007,07,07,08,00,305.30
2007,07,07,08,01,299.00
2007,07,07,08,02,285.90
2007,07,07,08,03,278.10
2007,07,07,08,04,271.30
2007,07,07,08,05,272.00
2007,07,07,08,06,322.90
2007,07,07,08,07,341.60
2007,07,07,08,08,325.00
2007,07,07,08,09,319.50
2007,07,07,08,10,313.70
2007,07,07,08,11,308.00
2007,07,07,08,12,304.10
2007,07,07,08,13,274.20
2007,07,07,08,14,240.80
2007,07,07,08,15,325.60
2007,07,07,08,16,344.30
2007,07,07,08,17,351.00
2007,07,07,08,18,343.00
2007,07,07,08,19,333.20
2007,07,07,08,20,364.50
2007,07,07,08,21,377.20
2007,07,07,08,22,390.80
2007,07,07,08,23,387.80
2007,07,07,08,24,382.90
2007,07,07,08,25,371.80
2007,07,07,08,26,328.20
2007,07,07,08,27,351.10
2007,07,07,08,28,349.00
2007,07,07,08,29,337.20
2007,07,07,08,30,365.60
2007,07,07,08,31,366.20
2007,07,07,08,32,344.60
2007,07,07,08,33,392.60
2007,07,07,08,34,421.30
2007,07,07,08,35,418.00
2007,07,07,08,36,398.10
2007,07,07,08,37,392.00
2007,07,07,08,38,387.40
2007,07,07,08,39,349.10
2007,07,07,08,40,367.40
2007,07,07,08,41,376.40
2007,07,07,08,42,406.20
2007,07,07,08,43,409.40
2007,07,07,08,44,403.50
2007,07,07,08,45,402.70
2007,07,07,08,46,438.90
2007,07,07,08,47,434.20
2007,07,07,08,48,440.90
2007,07,07,08,49,452.00
2007,07,07,08,50,454.20
2007,07,07,08,51,440.10
2007,07,07,08,52,432.20
2007,07,07,08,53,453.00
2007,07,07,08,54,480.00
2007,07,07,08,55,483.00
2007,07,07,08,56,520.90
2007,07,07,08,57,526.00
2007,07,07,08,58,526.50
2007,07,07,08,59,528.40
2007,07,07,09,00,530.60
2007,07,07,09,01,531.10
2007,07,07,09,02,533.20
2007,07,07,09,03,534.80
2007,07,07,09,04,537.10
2007,07,07,09,05,539.80
2007,07,07,09,06,544.50
2007,07,07,09,07,543.40
2007,07,07,09,08,547.20
2007,07,07,09,09,549.40
2007,07,07,09,10,552.00
2007,07,07,09,11,552.00
2007,07,07,09,12,558.20
2007,07,07,09,13,561.10
2007,07,07,09,14,563.60
2007,07,07,09,15,567.60
2007,07,07,09,16,570.60
2007,07,07,09,17,570.20
2007,07,07,09,18,551.60
2007,07,07,09,19,546.60
2007,07,07,09,20,543.00
2007,07,07,09,21,552.40
2007,07,07,09,22,558.00
2007,07,07,09,23,562.40
2007,07,07,09,24,566.00
2007,07,07,09,25,574.10
2007,07,07,09,26,582.50
2007,07,07,09,27,584.40
2007,07,07,09,28,575.90
2007,07,07,09,29,576.40
2007,07,07,09,30,582.80
2007,07,07,09,31,596.20
2007,07,07,09,32,583.80
2007,07,07,09,33,598.80
2007,07,07,09,34,593.40
2007,07,07,09,35,603.50
2007,07,07,09,36,597.20
2007,07,07,09,37,590.20
2007,07,07,09,38,584.00
2007,07,07,09,39,582.90
2007,07,07,09,40,588.40
2007,07,07,09,41,594.80
2007,07,07,09,42,596.00
2007,07,07,09,43,595.10
2007,07,07,09,44,594.50
2007,07,07,09,45,597.50
2007,07,07,09,46,622.70
2007,07,07,09,47,610.90
2007,07,07,09,48,633.70
2007,07,07,09,49,643.10
2007,07,07,09,50,644.60
2007,07,07,09,51,651.50
2007,07,07,09,52,644.10
2007,07,07,09,53,626.10
2007,07,07,09,54,650.10
2007,07,07,09,55,645.10
2007,07,07,09,56,643.70
2007,07,07,09,57,641.80
2007,07,07,09,58,645.90
2007,07,07,09,59,649.00
2007,07,07,10,00,649.10
2007,07,07,10,01,643.40
2007,07,07,10,02,642.50
2007,07,07,10,03,647.00
2007,07,07,10,04,651.40
2007,07,07,10,05,643.40
2007,07,07,10,06,601.20
2007,07,07,10,07,647.70
2007,07,07,10,08,655.80
2007,07,07,10,09,655.10
2007,07,07,10,10,670.70
2007,07,07,10,11,653.20
2007,07,07,10,12,679.00
2007,07,07,10,13,681.20
2007,07,07,10,14,689.30
2007,07,07,10,15,685.20
2007,07,07,10,16,662.70
2007,07,07,10,17,684.00
2007,07,07,10,18,686.20
2007,07,07,10,19,687.70
2007,07,07,10,20,680.50
2007,07,07,10,21,677.20
2007,07,07,10,22,680.00
2007,07,07,10,23,678.90
2007,07,07,10,24,664.40
2007,07,07,10,25,689.50
2007,07,07,10,26,698.10
2007,07,07,10,27,683.20
2007,07,07,10,28,686.80
2007,07,07,10,29,712.80
2007,07,07,10,30,723.60
2007,07,07,10,31,730.60
2007,07,07,10,32,732.00
2007,07,07,10,33,722.50
2007,07,07,10,34,721.60
2007,07,07,10,35,721.70
2007,07,07,10,36,718.50
2007,07,07,10,37,717.80
2007,07,07,10,38,721.90
2007,07,07,10,39,730.90
2007,07,07,10,40,736.20
2007,07,07,10,41,736.30
2007,07,07,10,42,744.10
2007,07,07,10,43,737.00
2007,07,07,10,44,743.00
2007,07,07,10,45,742.00
2007,07,07,10,46,756.90
2007,07,07,10,47,752.60
2007,07,07,10,48,753.40
2007,07,07,10,49,751.50
2007,07,07,10,50,757.50
2007,07,07,10,51,758.90
2007,07,07,10,52,764.60
2007,07,07,10,53,770.00
2007,07,07,10,54,770.60
2007,07,07,10,55,769.00
2007,07,07,10,56,769.90
2007,07,07,10,57,776.90
2007,07,07,10,58,780.00
2007,07,07,10,59,781.30
2007,07,07,11,00,786.00
2007,07,07,11,01,787.60
2007,07,07,11,02,789.00
2007,07,07,11,03,794.30
2007,07,07,11,04,788.80
2007,07,07,11,05,786.00
2007,07,07,11,06,785.30
2007,07,07,11,07,781.90
2007,07,07,11,08,784.80
2007,07,07,11,09,796.80
2007,07,07,11,10,805.00
2007,07,07,11,11,804.40
2007,07,07,11,12,803.20
2007,07,07,11,13,806.00
2007,07,07,11,14,807.00
2007,07,07,11,15,808.60
2007,07,07,11,16,809.10
2007,07,07,11,17,810.60
2007,07,07,11,18,812.90
2007,07,07,11,19,814.00
2007,07,07,11,20,814.00
2007,07,07,11,21,816.70
2007,07,07,11,22,817.20
2007,07,07,11,23,820.00
2007,07,07,11,24,822.20
2007,07,07,11,25,822.70
2007,07,07,11,26,824.00
2007,07,07,11,27,824.00
2007,07,07,11,28,829.70
2007,07,07,11,29,830.30
2007,07,07,11,30,832.60
2007,07,07,11,31,835.00
2007,07,07,11,32,835.00
2007,07,07,11,33,836.90
2007,07,07,11,34,838.60
2007,07,07,11,35,842.60
2007,07,07,11,36,845.50
2007,07,07,11,37,848.30
2007,07,07,11,38,851.80
2007,07,07,11,39,854.00
2007,07,07,11,40,841.90
2007,07,07,11,41,824.20
2007,07,07,11,42,841.80
2007,07,07,11,43,823.00
2007,07,07,11,44,805.50
2007,07,07,11,45,849.00
2007,07,07,11,46,868.00
2007,07,07,11,47,881.40
2007,07,07,11,48,893.00
2007,07,07,11,49,893.00
2007,07,07,11,50,893.00
2007,07,07,11,51,886.70
2007,07,07,11,52,886.40
2007,07,07,11,53,888.00
2007,07,07,11,54,889.60
2007,07,07,11,55,892.30
2007,07,07,11,56,900.90
2007,07,07,11,57,903.60
2007,07,07,11,58,898.50
2007,07,07,11,59,904.50
2007,07,07,12,00,907.30
2007,07,07,12,01,842.30
2007,07,07,12,02,823.00
2007,07,07,12,03,829.80
2007,07,07,12,04,872.90
2007,07,07,12,05,853.90
2007,07,07,12,06,838.00
2007,07,07,12,07,890.90
2007,07,07,12,08,914.00
2007,07,07,12,09,914.20
2007,07,07,12,10,916.60
2007,07,07,12,11,918.00
2007,07,07,12,12,914.70
2007,07,07,12,13,916.90
2007,07,07,12,14,932.00
2007,07,07,12,15,935.00
2007,07,07,12,16,867.50
2007,07,07,12,17,710.00
2007,07,07,12,18,580.40
2007,07,07,12,19,494.00
2007,07,07,12,20,682.00
2007,07,07,12,21,729.10
2007,07,07,12,22,946.30
2007,07,07,12,23,937.40
2007,07,07,12,24,911.60
2007,07,07,12,25,872.80
2007,07,07,12,26,848.50
2007,07,07,12,27,835.90
2007,07,07,12,28,810.30
2007,07,07,12,29,811.90
2007,07,07,12,30,821.60
2007,07,07,12,31,845.80
2007,07,07,12,32,852.30
2007,07,07,12,33,903.10
2007,07,07,12,34,905.40
2007,07,07,12,35,917.50
2007,07,07,12,36,910.30
2007,07,07,12,37,876.10
2007,07,07,12,38,812.20
2007,07,07,12,39,780.00
2007,07,07,12,40,731.80
2007,07,07,12,41,663.00
2007,07,07,12,42,848.10
2007,07,07,12,43,884.20
2007,07,07,12,44,881.20
2007,07,07,12,45,859.40
2007,07,07,12,46,866.90
2007,07,07,12,47,839.70
2007,07,07,12,48,816.00
2007,07,07,12,49,853.60
2007,07,07,12,50,845.00
2007,07,07,12,51,794.70
2007,07,07,12,52,830.00
2007,07,07,12,53,895.50
2007,07,07,12,54,931.70
2007,07,07,12,55,890.20
2007,07,07,12,56,881.10
2007,07,07,12,57,853.30
2007,07,07,12,58,800.50
2007,07,07,12,59,867.10
2007,07,07,13,00,888.00
2007,07,07,13,01,858.00
2007,07,07,13,02,807.80
2007,07,07,13,03,767.40
2007,07,07,13,04,775.00
2007,07,07,13,05,781.90
2007,07,07,13,06,778.80
2007,07,07,13,07,773.00
2007,07,07,13,08,784.00
2007,07,07,13,09,796.80
2007,07,07,13,10,793.00
2007,07,07,13,11,855.70
2007,07,07,13,12,881.00
2007,07,07,13,13,864.00
2007,07,07,13,14,870.00
2007,07,07,13,15,832.10
2007,07,07,13,16,763.00
2007,07,07,13,17,738.00
2007,07,07,13,18,738.00
2007,07,07,13,19,754.20
2007,07,07,13,20,724.30
2007,07,07,13,21,638.30
2007,07,07,13,22,622.50
2007,07,07,13,23,612.00
2007,07,07,13,24,779.10
2007,07,07,13,25,808.90
2007,07,07,13,26,726.50
2007,07,07,13,27,683.50
2007,07,07,13,28,619.50
2007,07,07,13,29,637.20
2007,07,07,13,30,732.00
2007,07,07,13,31,799.90
2007,07,07,13,32,875.10
2007,07,07,13,33,899.80
2007,07,07,13,34,927.70
2007,07,07,13,35,946.20
2007,07,07,13,36,933.70
2007,07,07,13,37,920.80
2007,07,07,13,38,938.20
2007,07,07,13,39,942.10
2007,07,07,13,40,940.00
2007,07,07,13,41,903.80
2007,07,07,13,42,928.00
2007,07,07,13,43,850.50
2007,07,07,13,44,890.50
2007,07,07,13,45,927.00
2007,07,07,13,46,922.70
2007,07,07,13,47,905.40
2007,07,07,13,48,879.80
2007,07,07,13,49,841.60
2007,07,07,13,50,829.00
2007,07,07,13,51,874.80
2007,07,07,13,52,906.50
2007,07,07,13,53,918.00
2007,07,07,13,54,929.80
2007,07,07,13,55,906.40
2007,07,07,13,56,885.50
2007,07,07,13,57,871.20
2007,07,07,13,58,873.50
2007,07,07,13,59,889.80
2007,07,07,14,00,883.10
2007,07,07,14,01,891.00
2007,07,07,14,02,886.30
2007,07,07,14,03,874.10
2007,07,07,14,04,863.30
2007,07,07,14,05,889.30
2007,07,07,14,06,909.50
2007,07,07,14,07,896.80
2007,07,07,14,08,902.90
2007,07,07,14,09,915.20
2007,07,07,14,10,909.10
2007,07,07,14,11,904.20
2007,07,07,14,12,860.00
2007,07,07,14,13,854.50
2007,07,07,14,14,863.20
2007,07,07,14,15,877.00
2007,07,07,14,16,878.60
2007,07,07,14,17,872.40
2007,07,07,14,18,904.10
2007,07,07,14,19,896.40
2007,07,07,14,20,890.40
2007,07,07,14,21,871.00
2007,07,07,14,22,875.80
2007,07,07,14,23,874.00
2007,07,07,14,24,870.00
2007,07,07,14,25,897.20
2007,07,07,14,26,897.00
2007,07,07,14,27,905.80
2007,07,07,14,28,906.00
2007,07,07,14,29,889.00
2007,07,07,14,30,836.70
2007,07,07,14,31,881.00
2007,07,07,14,32,826.00
2007,07,07,14,33,782.00
2007,07,07,14,34,827.00
2007,07,07,14,35,825.70
2007,07,07,14,36,867.90
2007,07,07,14,37,878.40
2007,07,07,14,38,867.40
2007,07,07,14,39,882.50
2007,07,07,14,40,886.60
2007,07,07,14,41,881.80
2007,07,07,14,42,868.20
2007,07,07,14,43,833.00
2007,07,07,14,44,835.90
2007,07,07,14,45,838.00
2007,07,07,14,46,817.30
2007,07,07,14,47,826.60
2007,07,07,14,48,816.20
2007,07,07,14,49,834.20
2007,07,07,14,50,860.00
2007,07,07,14,51,814.50
2007,07,07,14,52,786.50
2007,07,07,14,53,788.90
2007,07,07,14,54,812.00
2007,07,07,14,55,812.00
2007,07,07,14,56,694.90
2007,07,07,14,57,679.20
2007,07,07,14,58,693.00
2007,07,07,14,59,861.00
2007,07,07,15,00,853.00
2007,07,07,15,01,868.40
2007,07,07,15,02,857.80
2007,07,07,15,03,866.50
2007,07,07,15,04,838.00
2007,07,07,15,05,822.60
2007,07,07,15,06,787.10
2007,07,07,15,07,802.40
2007,07,07,15,08,796.80
2007,07,07,15,09,833.80
2007,07,07,15,10,791.20
2007,07,07,15,11,734.20
2007,07,07,15,12,752.60
2007,07,07,15,13,778.90
2007,07,07,15,14,761.20
2007,07,07,15,15,807.50
2007,07,07,15,16,852.60
2007,07,07,15,17,844.50
2007,07,07,15,18,826.50
2007,07,07,15,19,820.50
2007,07,07,15,20,827.40
2007,07,07,15,21,824.20
2007,07,07,15,22,820.80
2007,07,07,15,23,816.20
2007,07,07,15,24,812.40
2007,07,07,15,25,811.20
2007,07,07,15,26,809.70
2007,07,07,15,27,809.00
2007,07,07,15,28,803.30
2007,07,07,15,29,812.60
2007,07,07,15,30,806.80
2007,07,07,15,31,806.60
2007,07,07,15,32,814.00
2007,07,07,15,33,733.10
2007,07,07,15,34,739.50
2007,07,07,15,35,802.70
2007,07,07,15,36,801.10
2007,07,07,15,37,801.30
2007,07,07,15,38,802.70
2007,07,07,15,39,803.00
2007,07,07,15,40,800.90
2007,07,07,15,41,797.20
2007,07,07,15,42,802.20
2007,07,07,15,43,785.60
2007,07,07,15,44,792.30
2007,07,07,15,45,807.50
2007,07,07,15,46,815.60
2007,07,07,15,47,786.10
2007,07,07,15,48,744.00
2007,07,07,15,49,563.40
2007,07,07,15,50,412.50
2007,07,07,15,51,406.00
2007,07,07,15,52,387.90
2007,07,07,15,53,275.10
2007,07,07,15,54,300.90
2007,07,07,15,55,316.90
2007,07,07,15,56,334.50
2007,07,07,15,57,338.00
2007,07,07,15,58,391.80
2007,07,07,15,59,378.00
2007,07,07,16,00,409.50
2007,07,07,16,01,478.40
2007,07,07,16,02,494.00
2007,07,07,16,03,753.10
2007,07,07,16,04,805.00
2007,07,07,16,05,805.00
2007,07,07,16,06,805.00
2007,07,07,16,07,805.00
2007,07,07,16,08,382.80
2007,07,07,16,09,341.20
2007,07,07,16,10,418.90
2007,07,07,16,11,396.40
2007,07,07,16,12,387.00
2007,07,07,16,13,478.00
2007,07,07,16,14,426.60
2007,07,07,16,15,531.30
2007,07,07,16,16,619.30
2007,07,07,16,17,634.60
2007,07,07,16,18,568.40
2007,07,07,16,19,552.80
2007,07,07,16,20,506.00
2007,07,07,16,21,528.80
2007,07,07,16,22,673.20
2007,07,07,16,23,664.00
2007,07,07,16,24,632.80
2007,07,07,16,25,613.00
2007,07,07,16,26,613.00
2007,07,07,16,27,353.00
2007,07,07,16,28,453.20
2007,07,07,16,29,636.70
2007,07,07,16,30,599.80
2007,07,07,16,31,599.20
2007,07,07,16,32,598.70
2007,07,07,16,33,611.90
2007,07,07,16,34,614.40
2007,07,07,16,35,594.80
2007,07,07,16,36,542.30
2007,07,07,16,37,499.10
2007,07,07,16,38,486.00
2007,07,07,16,39,429.80
2007,07,07,16,40,442.00
2007,07,07,16,41,424.50
2007,07,07,16,42,437.70
2007,07,07,16,43,498.40
2007,07,07,16,44,570.70
2007,07,07,16,45,512.20
2007,07,07,16,46,462.00
2007,07,07,16,47,505.90
2007,07,07,16,48,518.80
2007,07,07,16,49,494.40
2007,07,07,16,50,514.50
2007,07,07,16,51,517.00
2007,07,07,16,52,511.40
2007,07,07,16,53,485.00
2007,07,07,16,54,628.90
2007,07,07,16,55,654.90
2007,07,07,16,56,722.30
2007,07,07,16,57,734.80
2007,07,07,16,58,748.90
2007,07,07,16,59,693.40
2007,07,07,17,00,661.00
2007,07,07,17,01,558.40
2007,07,07,17,02,561.00
2007,07,07,17,03,479.50
2007,07,07,17,04,330.00
2007,07,07,17,05,368.00